• Processing (Info)

  • MPEC 2016-F21 : 2016 EE195

    The following Minor Planet Electronic Circular may be linked-to from your own Web pages, but must not otherwise be redistributed electronically.

    A form allowing access to any MPEC is at the bottom of this page.


    Read MPEC 2016-F20 Read MPEC 2016-F22


    M.P.E.C. 2016-F21                                Issued 2016 Mar. 17, 16:33 UT
    
         The Minor Planet Electronic Circulars contain information on unusual
             minor planets and routine data on comets.  They are published
        on behalf of Division F of the International Astronomical Union by the
              Minor Planet Center, Smithsonian Astrophysical Observatory,
                              Cambridge, MA 02138, U.S.A.
    
                 Prepared using the Tamkin Foundation Computer Network
    
                                  MPC@CFA.HARVARD.EDU
                URL https://www.minorplanetcenter.net/    ISSN 1523-6714
    
                                      2016 EE195
    
    Observations:
         K16EJ5E* C2016 03 15.25642 11 08 10.06 +05 17 26.2          20.3 VqEF021G96
         K16EJ5E  C2016 03 15.26036 11 08 13.11 +05 17 53.5          20.5 VqEF021G96
         K16EJ5E  C2016 03 15.26432 11 08 16.10 +05 18 20.3          20.3 VqEF021G96
         K16EJ5E  C2016 03 15.26826 11 08 19.10 +05 18 47.2          20.2 VqEF021G96
         K16EJ5E  C2016 03 15.33532 11 09 10.25 +05 26 23.4          20.4 VqEF021G96
         K16EJ5E  C2016 03 15.33576 11 09 10.60 +05 26 26.5          20.4 VqEF021G96
         K16EJ5E  C2016 03 15.33621 11 09 10.92 +05 26 29.2          20.2 VqEF021G96
         K16EJ5E  C2016 03 15.33665 11 09 11.25 +05 26 32.5          20.4 VqEF021G96
         K16EJ5E KC2016 03 15.39103811 09 51.66 +05 32 42.8          20.6 RtEF021V37
         K16EJ5E KC2016 03 15.39496311 09 54.73 +05 33 08.9          20.5 RtEF021V37
         K16EJ5E KC2016 03 15.39898211 09 57.83 +05 33 35.7          20.2 RtEF021V37
         K16EJ5E  C2016 03 15.42034 11 10 15.72 +05 35 53.1          20.4 VqEF021G96
         K16EJ5E  C2016 03 15.42078 11 10 16.08 +05 35 56.6          20.2 VqEF021G96
         K16EJ5E  C2016 03 15.42122 11 10 16.44 +05 36 00.2          20.5 VqEF021G96
         K16EJ5E  C2016 03 15.42166 11 10 16.70 +05 36 02.4          20.0 VqEF021G96
         K16EJ5E  C2016 03 16.24420811 21 37.11 +07 05 07.6          20.4 VtEF021H01
         K16EJ5E  C2016 03 16.25184211 21 42.57 +07 05 55.5          20.7 VtEF021H01
         K16EJ5E  C2016 03 16.25944511 21 48.01 +07 06 43.3          20.6 VtEF021H01
         K16EJ5E  C2016 03 16.26233 11 21 50.93 +07 07 09.8          20.7 RoEF021926
         K16EJ5E  C2016 03 16.26532 11 21 53.07 +07 07 28.5          20.7 RoEF021926
         K16EJ5E  C2016 03 16.26566211 21 52.44 +07 07 22.3          20.7 VtEF021H01
         K16EJ5E  C2016 03 16.26831 11 21 55.19 +07 07 47.1          20.7 RoEF021926
         K16EJ5E  C2016 03 16.27321 11 21 58.65 +07 08 14.6          20.5 VqEF021G96
         K16EJ5E  C2016 03 16.27371 11 21 59.01 +07 08 17.9          20.4 VqEF021G96
         K16EJ5E  C2016 03 16.27421 11 21 59.36 +07 08 20.8          21.0 VqEF021G96
         K16EJ5E  C2016 03 16.27471 11 21 59.71 +07 08 24.1          20.2 VqEF021G96
         K16EJ5E  C2016 03 16.30064 11 22 18.15 +07 11 09.1          20.6 RoEF021926
         K16EJ5E  C2016 03 16.30363 11 22 20.27 +07 11 27.6          20.7 RoEF021926
         K16EJ5E  C2016 03 16.30666 11 22 22.41 +07 11 46.2          20.6 RoEF021926
         K16EJ5E  C2016 03 16.89370 11 29 58.65 +08 09 50.6          19.8 VSEF021033
         K16EJ5E  C2016 03 16.89608 11 30 00.32 +08 10 04.7          20.0 VSEF021033
         K16EJ5E  C2016 03 16.89844 11 30 01.97 +08 10 18.5          20.2 VSEF021033
         K16EJ5E  C2016 03 16.90092 11 30 03.73 +08 10 33.0          20.2 VSEF021033
         K16EJ5E  C2016 03 16.90330 11 30 05.40 +08 10 47.3          20.3 VSEF021033
         K16EJ5E  C2016 03 16.95922 11 30 44.37 +08 16 15.4          19.5 VSEF021033
         K16EJ5E  C2016 03 16.96159 11 30 45.99 +08 16 28.7          20.3 VSEF021033
         K16EJ5E  C2016 03 16.96396 11 30 47.64 +08 16 42.3          19.3 VSEF021033
         K16EJ5E  C2016 03 16.96632 11 30 49.27 +08 16 56.6          20.1 VSEF021033
         K16EJ5E  C2016 03 16.96869 11 30 50.93 +08 17 10.3          19.8 VSEF021033
         K16EJ5E  C2016 03 17.07684 11 32 06.19 +08 27 31.3          20.1 VSEF021033
         K16EJ5E  C2016 03 17.07920 11 32 07.85 +08 27 44.7          20.3 VSEF021033
         K16EJ5E  C2016 03 17.08157 11 32 09.50 +08 27 58.4          19.9 VSEF021033
         K16EJ5E  C2016 03 17.08394 11 32 11.19 +08 28 12.3          19.8 VSEF021033
         K16EJ5E  C2016 03 17.14736411 33 13.57 +08 35 01.3          20.5 VtEF021H01
         K16EJ5E  C2016 03 17.15669911 33 20.04 +08 35 55.8          20.7 VtEF021H01
         K16EJ5E  C2016 03 17.16047611 33 22.67 +08 36 18.2          20.8 VtEF021H01
         K16EJ5E  C2016 03 17.16975911 33 29.04 +08 37 12.1          20.5 VtEF021H01
         K16EJ5E "C2016 03 17.24428811 34 19.05 +08 44 24.9          18.4 RtEF021705
         K16EJ5E "C2016 03 17.24530111 34 19.80 +08 44 31.3          18.4 RtEF021705
         K16EJ5E "C2016 03 17.24631211 34 20.61 +08 44 37.5          18.2 RtEF021705
         K16EJ5E  C2016 03 17.40015 11 36 02.85 +08 59 00.2          20.2 RoEF021926
         K16EJ5E  C2016 03 17.40387 11 36 05.33 +08 59 20.7          20.1 RoEF021926
         K16EJ5E  C2016 03 17.40757 11 36 07.80 +08 59 40.6          20.1 RoEF021926
    
    Observer details:
    033 Karl Schwarzschild Observatory, Tautenburg.  Observers B. Stecklum,
        F. Ludwig.  Measurer B. Stecklum.  1.34-m f/3 Schmidt + CCD.
    705 Apache Point.  Observers K. Nault, M. Hammergren, M. Brucker.  Measurer
        K. Nault.  3.5-m f/10 reflector + CCD.
    926 Tenagra II Observatory.  Observers M. Schwartz, P. R. Holvorcem.  Measurer
        M. Schwartz.  0.41-m f/3.75 astrograph + CCD, 0.81-m f/7 Ritchey-Chretien
        + CCD.
    G96 Mt. Lemmon Survey.  Observer G. J. Leonard.  Measurers E. J. Christensen,
        D. C. Fuls, A. R. Gibbs, A. D. Grauer, J. A. Johnson, R. A. Kowalski,
        S. M. Larson, G. J. Leonard, R. G. Matheny, R. L. Seaman, F. C. Shelly.
        1.5-m reflector + CCD.
    H01 Magdalena Ridge Observatory, Socorro.  Observers W. H. Ryan, E. V. Ryan.
        Measurer W. H. Ryan.  2.4-m f/8.9 reflector + CCD.
    V37 McDonald Observatory-LCOGT ELP.  Observers T. Lister, S. Greenstreet,
        E. Gomez.  Measurer T. Lister.  1.0-m f/8 Ritchey-Chretien + CCD.
    
    Orbital elements:
    2016 EE195                                               Earth MOID = 0.0331 AU
    Epoch 2016 Jan. 13.0 TT = JDT 2457400.5                 MPC
    M 337.23986              (2000.0)            P               Q
    n   0.60122473     Peri.  333.52472     -0.85025474     -0.52626938
    a   1.3903095      Node   174.68644     +0.50060841     -0.81456719
    e   0.2732606      Incl.    6.42578     +0.16265942     -0.24396893
    P   1.64           H   26.7           G   0.15           U   5
    Residuals in seconds of arc
    160315 G96  0.2+  0.2+    160316 926  0.1+  0.1+    160316 033  0.1-  0.5-
    160315 G96  0.7+  0.5+    160316 926  0.3+  0.1+    160316 033  0.2-  0.1+
    160315 G96  0.1+  0.2+    160316 H01  0.3-  0.0     160316 033  0.0   0.0
    160315 G96  0.1-  0.1+    160316 926  0.1+  0.1-    160317 033  0.1-  0.2-
    160315 G96  0.0   0.0     160316 G96  0.3+  0.1+    160317 033  0.0   0.2-
    160315 G96  0.2+  0.1+    160316 G96  0.3+  0.3+    160317 033  0.3-  0.1+
    160315 G96  0.1-  0.2-    160316 G96  0.3+  0.1+    160317 033  0.1+  0.5+
    160315 G96  0.2-  0.1+    160316 G96  0.2+  0.2+    160317 H01  0.2-  0.3-
    160315 V37  0.1-  0.2-    160316 926  0.1+  0.2+    160317 H01  0.2-  0.2-
    160315 V37  0.1+  0.3-    160316 926  0.1+  0.1+    160317 H01  0.2+  0.2+
    160315 V37  0.3-  0.3-    160316 926  0.1-  0.1-    160317 H01  0.1-  0.1+
    160315 G96  0.2-  0.8-    160316 033  0.0   0.1+    160317 705  0.6-  0.4-
    160315 G96  0.1+  0.2-    160316 033  0.0   0.1+    160317 705  0.6+  0.2+
    160315 G96  0.3+  0.5+    160316 033  0.1-  0.0     160317 705 (2.6+  0.6+)
    160315 G96  0.9-  0.2-    160316 033  0.2+  0.2-    160317 926  0.1+  0.0
    160316 H01  0.2-  0.0     160316 033  0.2+  0.1+    160317 926  0.2+  0.2+
    160316 H01  0.3-  0.1-    160316 033  0.2+  0.3+    160317 926  0.3+  0.1-
    160316 H01  0.2-  0.0     160316 033  0.2-  0.3-
    
    Ephemeris:
    2016 EE195               a,e,i = 1.39, 0.27, 6                   q = 1.0104
    Date    TT    R. A. (2000) Decl.     Delta      r     Elong.  Phase     V
    2016 02 16    05 39 53.6 -27 46 58   0.07417 1.0110   106.2    69.8    23.5
    ...
    2016 03 02    07 36 09.9 -21 01 32   0.04190 1.0153   124.2    53.8    21.8
    ...
    2016 03 10    09 43 59.2 -06 17 43   0.03505 1.0247   153.4    25.7    20.7
    ...
    2016 03 16    11 18 18.8 +06 40 58   0.04033 1.0347   171.9     7.8    20.4
    2016 03 17    11 31 14.2 +08 22 29   0.04200 1.0366   171.9     7.8    20.4
    2016 03 18    11 43 14.5 +09 54 06   0.04385 1.0386   170.8     8.8    20.6
    ...
    2016 03 24    12 37 54.7 +16 06 27   0.05772 1.0518   161.4    17.6    21.5
    ...
    2016 04 01    13 18 14.9 +19 29 57   0.08088 1.0728   154.4    23.8    22.5
    ...
    2016 04 16    13 49 12.9 +19 57 04   0.1330  1.1205   149.8    26.8    23.8
    
    A. U. Tomatic                (C) Copyright 2016 MPC           M.P.E.C. 2016-F21
    

    Read MPEC 2016-F20 Read MPEC 2016-F22


    MPEC number:

    Enter an MPEC number in one of the following forms:

    • 1997-B01 (the full form)
    • J97B01 (the packed version of the full form)
    • B01 (the abbreviated form)